{"data":{"norad_id":55596,"intl_designator":"2023-020AD","name":"STARLINK-5729","alt_names":[],"object_type":"PAYLOAD","status":"ACTIVE","operator":null,"country":"US","launch_date":"2023-02-12","launch_site_code":"AFETR","launch_vehicle":null,"mission":null,"orbit_class":"UNKNOWN","rcs_meters":null,"size_class":null,"mass_kg":null,"dimensions":null,"purposes":["comms"],"wikipedia_slug":null,"has_3d_model":false,"image_url":null,"decayed_at":null,"tle_current":{"epoch":"2026-09-20T12:53:53.779200Z","epoch_age_seconds":96769,"freshness":"FRESH","line1":"1 55596U 23020AD  26263.53742800 -.00000666  00000+0 -14669-4 0  9994","line2":"2 55596  43.0036 344.6843 0000981 282.6400  77.4342 15.27573634198716","mean_motion":15.27573634,"eccentricity":9.81e-5,"inclination_deg":43.0036,"raan_deg":344.6843,"arg_perigee_deg":282.64,"mean_anomaly_deg":77.4342,"bstar":-1.4669e-5,"rev_number":19871,"period_min":94.267141560261,"perigee_km":482.39507397399,"apogee_km":483.74124242603,"semimajor_km":6861.2051582,"source":"CELESTRAK","updated_at":"2026-09-21T09:00:33.269892Z"}}}